Flag for Germany Weather past 2 weeks in Westerstede, Lower Saxony, Germany

Now
57 °F

Light rain. Broken clouds.


Feels Like: 55 °F
Forecast: 45 / 54 °F
Wind: 9 mph from Southwest

Location: Wittmundhaven

Current Time: Oct 20, 2014 at 8:42:53 PM

Latest Report: Oct 20, 2014 at 7:20 PM


Visibility: N/A

Pressure: 29.86 "Hg

Humidity: 77%

Dew point: 50 °F

Location of WesterstedeLocation

Historic Weather in Westerstede — Graph

°F

Westerstede temperature yesterday

Maximum temperature yesterday: 68 °F (at 12:20 PM)
Minimum temperature yesterday: 59 °F (at 9:20 PM)
Average temperature yesterday: 63 °F

Past Weeks' High & Low Weather Summary

 TemperatureHumidityPressure
High68 °F (Oct 19, 12:20 PM)100% (Oct 6, 12:20 AM)30.07 "Hg (Oct 6, 12:20 AM)
Low45 °F (Oct 11, 7:20 AM)59% (Oct 6, 2:20 PM)29.42 "Hg (Oct 7, 2:20 PM)
Average56 °F87%29.78 "Hg
* Reported Oct 5 7:20 PM — Oct 20 7:20 PM, Westerstede, Weather by CustomWeather, © 2014

Note: Actual official high and low records may vary slightly from our data, if they occured in-between our weather recording intervals... More about our weather records

Advertising

Westerstede weather history for previous 24 hours

 ConditionsComfort  
Time TempWeatherWind HumidityBarometerVisibility
7:20 PM
Oct 20
57 °FLight rain. Broken clouds.9 mph77%29.86 "HgN/A
6:20 PM57 °FPartly sunny.8 mph82%29.86 "HgN/A
5:20 PM57 °FPartly sunny.10 mph82%29.86 "HgN/A
4:20 PM57 °FBroken clouds.13 mph82%29.89 "HgN/A
3:20 PM57 °FSprinkles. Partly sunny.17 mph82%29.89 "HgN/A
2:20 PM57 °FSprinkles. Broken clouds.17 mph77%29.89 "HgN/A
1:20 PM59 °FBroken clouds.21 mph72%29.89 "HgN/A
12:20 PM59 °FBroken clouds.21 mph77%29.89 "HgN/A
11:20 AM59 °FSprinkles. Scattered clouds.17 mph82%29.89 "HgN/A
10:20 AM59 °FScattered clouds.18 mph82%29.86 "HgN/A
9:20 AM57 °FScattered clouds.14 mph88%29.86 "HgN/A
8:20 AM57 °FSprinkles. Partly cloudy.14 mph88%29.83 "HgN/A
7:20 AM57 °FPassing clouds.15 mph88%29.83 "HgN/A
5:20 AM57 °FPassing clouds.14 mph88%29.83 "HgN/A
4:20 AM57 °FPassing clouds.16 mph88%29.83 "HgN/A
3:20 AM57 °FSprinkles. Partly cloudy.18 mph88%29.83 "HgN/A
2:20 AM59 °FLight rain. Partly cloudy.21 mph82%29.83 "HgN/A
1:20 AM59 °FPassing clouds.17 mph88%29.83 "HgN/A
12:20 AM59 °FPassing clouds.17 mph88%29.83 "HgN/A
11:20 PM
Oct 19
59 °FPassing clouds.17 mph88%29.83 "HgN/A
10:20 PM59 °FPassing clouds.14 mph88%29.83 "HgN/A
9:20 PM59 °FPassing clouds.15 mph88%29.83 "HgN/A
8:20 PM61 °FPassing clouds.16 mph83%29.83 "HgN/A
Weather by CustomWeather, © 2014

See weather overviewHow to use our weather pages